M I D A S
Marine Information and Data Acquisition System
Tripno 1701 of the Zeeleeuw from 2009-05-28 06:58:06 to 2009-05-28 15:08:03
Back to CruiseResearch ActivitiesStationsMapUnderway DataData graphs

EquipmentUnitsComments
TimeDGPSUTC
LatitudeDGPSDM.mWGS84
LongitudeDGPSDM.mWGS84
SpeedMeteo Stationm/sRelative wind speed
DirectionMeteo StationdegRelative wind direction
TemperatureMeteo Stationdeg CelciusAir temperature
PressureMeteo StationPaAtmospheric pressure
HumidityMeteo Station%Relative humidity
Missing or incorrect values are displayed as -999
Metereological data collected by the RV Zeeleeuw from 2009-05-28 07:10:27 to 2009-05-28 15:17:22
                                                                                    Next 1000 lines
Time Latitude Longitude Speed Direction Temperature Pressure Humidity
2009-05-28 07:10:37 51°13.663 2°55.956 5.7 21 14.4 102710 96
2009-05-28 07:10:42 51°13.664 2°55.954 5.5 31 14.4 102710 96
2009-05-28 07:10:48 51°13.665 2°55.95 4.8 21 14.5 102710 97
2009-05-28 07:10:52 51°13.665 2°55.947 6.1 34 14.5 102710 97
2009-05-28 07:10:58 51°13.667 2°55.943 7.7 26 14.5 102710 97
2009-05-28 07:11:04 51°13.669 2°55.938 6 42 14.5 102710 97
2009-05-28 07:11:09 51°13.67 2°55.933 6 45 14.6 102710 98
2009-05-28 07:11:15 51°13.672 2°55.928 8.1 34 14.6 102710 98
2009-05-28 07:11:20 51°13.673 2°55.923 8 21 14.6 102710 98
2009-05-28 07:11:26 51°13.675 2°55.917 6.4 34 14.6 102710 98
2009-05-28 07:11:31 51°13.677 2°55.911 6.1 28 14.6 102710 98
2009-05-28 07:11:36 51°13.679 2°55.905 5.7 39 14.6 102710 98
2009-05-28 07:11:41 51°13.68 2°55.9 4.8 27 14.5 102710 97
2009-05-28 07:11:46 51°13.682 2°55.894 7.4 37 14.5 102710 97
2009-05-28 07:11:51 51°13.684 2°55.887 7.4 27 14.5 102710 97
2009-05-28 07:11:56 51°13.686 2°55.881 5.7 34 14.5 102710 97
2009-05-28 07:12:01 51°13.687 2°55.875 7 26 14.5 102710 97
2009-05-28 07:12:06 51°13.689 2°55.868 7.7 33 14.5 102710 97
2009-05-28 07:12:11 51°13.69 2°55.862 6.8 20 14.5 102710 97
2009-05-28 07:12:16 51°13.692 2°55.855 5.2 32 14.5 102710 97
2009-05-28 07:12:21 51°13.693 2°55.848 5.8 20 14.5 102710 97
2009-05-28 07:12:26 51°13.694 2°55.841 5.1 37 14.5 102710 97
2009-05-28 07:12:31 51°13.695 2°55.834 5.6 24 14.5 102710 97
2009-05-28 07:12:36 51°13.696 2°55.827 5.5 32 14.5 102710 97
2009-05-28 07:12:41 51°13.697 2°55.821 4.1 25 14.5 102710 97
2009-05-28 07:12:46 51°13.698 2°55.814 5 35 14.5 102710 97
2009-05-28 07:12:51 51°13.698 2°55.807 5.2 44 14.5 102710 97
2009-05-28 07:12:56 51°13.699 2°55.801 3.8 37 14.5 102710 97
2009-05-28 07:13:01 51°13.699 2°55.794 6.2 25 14.5 102710 97
2009-05-28 07:13:06 51°13.699 2°55.788 5.4 33 14.5 102710 97
2009-05-28 07:13:11 51°13.699 2°55.782 5 26 14.5 102710 97
2009-05-28 07:13:16 51°13.699 2°55.776 3.7 38 14.5 102710 97
2009-05-28 07:13:21 51°13.699 2°55.77 6.9 25 14.5 102710 97
2009-05-28 07:13:26 51°13.699 2°55.765 6.1 38 14.5 102710 97
2009-05-28 07:13:31 51°13.699 2°55.76 5.9 28 14.5 102710 97
2009-05-28 07:13:36 51°13.698 2°55.755 5.6 33 14.5 102710 97
2009-05-28 07:13:40 51°13.698 2°55.752 5.4 20 14.5 102710 97
2009-05-28 07:13:45 51°13.698 2°55.748 4 36 14.5 102710 97
2009-05-28 07:13:50 51°13.698 2°55.746 3.1 19 14.5 102710 97
2009-05-28 07:13:55 51°13.699 2°55.744 4.1 39 14.5 102710 97
2009-05-28 07:14:00 51°13.699 2°55.743 3.5 75 14.5 102720 97
2009-05-28 07:14:05 51°13.7 2°55.743 4.7 40 14.5 102720 97
2009-05-28 07:14:10 51°13.701 2°55.743 3.6 27 14.5 102710 97
2009-05-28 07:14:15 51°13.701 2°55.744 5.6 38 14.5 102710 97
2009-05-28 07:14:20 51°13.703 2°55.744 6.4 26 14.5 102720 97
2009-05-28 07:14:24 51°13.703 2°55.744 3.1 270 14.5 102720 97
2009-05-28 07:14:29 51°13.704 2°55.745 3 266 14.6 102720 97
2009-05-28 07:14:34 51°13.706 2°55.745 4.6 263 14.6 102720 97
2009-05-28 07:14:39 51°13.707 2°55.746 4.7 263 14.6 102720 97
2009-05-28 07:14:44 51°13.707 2°55.746 4.9 263 14.6 102720 97
2009-05-28 07:14:48 51°13.708 2°55.746 4.6 267 14.6 102730 97
2009-05-28 07:14:53 51°13.709 2°55.746 4.8 267 14.6 102730 97
2009-05-28 07:14:58 51°13.709 2°55.746 3.2 266 14.6 102730 97
2009-05-28 07:15:03 51°13.709 2°55.746 3.8 259 14.6 102730 97
2009-05-28 07:15:08 51°13.708 2°55.745 6.5 20 14.6 102720 97
2009-05-28 07:15:12 51°13.708 2°55.745 3.4 265 14.6 102720 97
2009-05-28 07:15:17 51°13.707 2°55.744 4 270 14.6 102720 97
2009-05-28 07:15:22 51°13.705 2°55.743 3.3 261 14.6 102720 97
2009-05-28 07:15:28 51°13.704 2°55.743 3.7 266 14.6 102720 97
2009-05-28 07:15:32 51°13.703 2°55.742 3.2 266 14.6 102720 97
2009-05-28 07:15:38 51°13.701 2°55.741 5.4 31 14.6 102710 97
2009-05-28 07:15:44 51°13.7 2°55.741 4.1 34 14.6 102710 97
2009-05-28 07:15:49 51°13.7 2°55.74 4.3 260 14.6 102710 97
2009-05-28 07:15:55 51°13.7 2°55.74 3.5 265 14.6 102710 97
2009-05-28 07:16:00 51°13.701 2°55.739 2.1 265 14.6 102720 97
2009-05-28 07:16:05 51°13.702 2°55.739 2.9 252 14.6 102720 97
2009-05-28 07:16:10 51°13.704 2°55.738 5.3 251 14.6 102720 96
2009-05-28 07:16:15 51°13.706 2°55.737 4.5 253 14.6 102720 96
2009-05-28 07:16:20 51°13.709 2°55.735 5.5 251 14.6 102720 96
2009-05-28 07:16:24 51°13.712 2°55.733 5.5 315 14.6 102720 96
2009-05-28 07:16:29 51°13.716 2°55.73 5.5 247 14.6 102710 96
2009-05-28 07:16:34 51°13.72 2°55.727 8.4 38 14.6 102710 96
2009-05-28 07:16:39 51°13.724 2°55.723 7.9 28 14.6 102720 96
2009-05-28 07:16:44 51°13.729 2°55.718 7 32 14.6 102720 96
2009-05-28 07:16:49 51°13.735 2°55.713 7.3 24 14.6 102720 96
2009-05-28 07:16:54 51°13.74 2°55.708 4.5 31 14.6 102720 96
2009-05-28 07:16:58 51°13.745 2°55.703 5.3 24 14.6 102720 96
2009-05-28 07:17:03 51°13.751 2°55.697 5 33 14.6 102720 96
2009-05-28 07:17:08 51°13.758 2°55.691 5.3 317 14.6 102720 96
2009-05-28 07:17:13 51°13.765 2°55.684 5.8 34 14.6 102720 96
2009-05-28 07:17:18 51°13.772 2°55.678 6.7 21 14.6 102720 96
2009-05-28 07:17:23 51°13.78 2°55.671 5.8 35 14.6 102720 96
2009-05-28 07:17:28 51°13.788 2°55.665 5.4 23 14.6 102720 96
2009-05-28 07:17:32 51°13.794 2°55.66 5.3 316 14.6 102720 96
2009-05-28 07:17:36 51°13.801 2°55.655 6.5 24 14.6 102720 96
2009-05-28 07:17:42 51°13.811 2°55.647 3.7 316 14.6 102720 96
2009-05-28 07:17:47 51°13.819 2°55.64 5 281 14.6 102720 96
2009-05-28 07:17:52 51°13.828 2°55.633 3.3 37 14.6 102720 96
2009-05-28 07:17:57 51°13.837 2°55.627 6 25 14.6 102720 97
2009-05-28 07:18:03 51°13.847 2°55.619 4.8 31 14.6 102720 97
2009-05-28 07:18:07 51°13.855 2°55.614 6.7 324 14.6 102720 96
2009-05-28 07:18:12 51°13.864 2°55.608 4.6 317 14.6 102720 96
2009-05-28 07:18:17 51°13.873 2°55.601 6.4 25 14.6 102720 96
2009-05-28 07:18:22 51°13.882 2°55.595 6.1 316 14.6 102720 96
2009-05-28 07:18:27 51°13.892 2°55.589 7.4 319 14.6 102720 96
2009-05-28 07:18:32 51°13.901 2°55.582 5.4 319 14.6 102720 96
2009-05-28 07:18:37 51°13.911 2°55.576 5.7 315 14.6 102720 96
2009-05-28 07:18:43 51°13.922 2°55.568 5.5 33 14.6 102720 96
2009-05-28 07:18:47 51°13.93 2°55.563 6.1 316 14.6 102720 96
2009-05-28 07:18:52 51°13.94 2°55.556 7.8 35 14.6 102720 96
2009-05-28 07:18:57 51°13.95 2°55.55 6.8 27 14.6 102720 96
2009-05-28 07:19:03 51°13.961 2°55.542 7.1 321 14.6 102720 96
2009-05-28 07:19:07 51°13.969 2°55.537 7.1 21 14.6 102720 96
2009-05-28 07:19:12 51°13.979 2°55.531 6.8 322 14.6 102720 96
2009-05-28 07:19:17 51°13.988 2°55.524 6.1 316 14.6 102710 96
2009-05-28 07:19:23 51°14 2°55.516 5.7 318 14.6 102710 96
2009-05-28 07:19:27 51°14.007 2°55.511 5.8 321 14.6 102720 96
2009-05-28 07:19:32 51°14.017 2°55.504 6.1 35 14.6 102720 96
2009-05-28 07:19:37 51°14.026 2°55.497 7.1 316 14.6 102720 96
2009-05-28 07:19:42 51°14.036 2°55.49 6.6 37 14.6 102720 96
2009-05-28 07:19:48 51°14.047 2°55.482 8.8 319 14.6 102720 96
2009-05-28 07:19:52 51°14.055 2°55.476 7.8 33 14.6 102720 96
2009-05-28 07:19:57 51°14.065 2°55.469 5.4 327 14.6 102720 96
2009-05-28 07:20:03 51°14.077 2°55.46 9.4 38 14.6 102720 96
2009-05-28 07:20:07 51°14.085 2°55.453 6.8 27 14.6 102720 96
2009-05-28 07:20:12 51°14.095 2°55.445 8.1 318 14.6 102720 96
2009-05-28 07:20:17 51°14.105 2°55.437 9.1 319 14.6 102720 96
2009-05-28 07:20:23 51°14.118 2°55.427 8.1 35 14.6 102720 96
2009-05-28 07:20:27 51°14.126 2°55.421 7.9 25 14.6 102730 96
2009-05-28 07:20:32 51°14.137 2°55.413 9.1 36 14.6 102730 96
2009-05-28 07:20:37 51°14.148 2°55.404 8.2 25 14.6 102710 96
2009-05-28 07:20:42 51°14.158 2°55.395 9.7 33 14.6 102710 96
2009-05-28 07:20:47 51°14.169 2°55.386 10.6 20 14.6 102720 96
2009-05-28 07:20:52 51°14.18 2°55.376 9 38 14.6 102720 96
2009-05-28 07:20:57 51°14.19 2°55.366 8.3 316 14.6 102720 96
2009-05-28 07:21:03 51°14.203 2°55.353 10.2 34 14.6 102720 96
2009-05-28 07:21:07 51°14.211 2°55.344 9.6 27 14.7 102720 96
2009-05-28 07:21:12 51°14.221 2°55.332 12.4 316 14.7 102720 96
2009-05-28 07:21:17 51°14.231 2°55.32 12.7 316 14.7 102710 96
2009-05-28 07:21:23 51°14.242 2°55.304 12.8 317 14.7 102710 96
2009-05-28 07:21:27 51°14.249 2°55.293 10.1 318 14.7 102720 96
2009-05-28 07:21:32 51°14.258 2°55.278 12.2 319 14.7 102720 96
2009-05-28 07:21:37 51°14.267 2°55.263 11 321 14.6 102710 96
2009-05-28 07:21:43 51°14.277 2°55.244 8.4 322 14.6 102710 96
2009-05-28 07:21:48 51°14.286 2°55.229 11.9 318 14.6 102720 96
2009-05-28 07:21:52 51°14.293 2°55.216 12.1 324 14.6 102720 96
2009-05-28 07:21:57 51°14.302 2°55.201 12.2 319 14.6 102720 96
2009-05-28 07:22:02 51°14.311 2°55.185 13.2 318 14.6 102720 96
2009-05-28 07:22:07 51°14.319 2°55.168 12.5 319 14.6 102720 96
2009-05-28 07:22:12 51°14.329 2°55.152 11.2 319 14.6 102720 96
2009-05-28 07:22:17 51°14.338 2°55.136 12.9 318 14.6 102720 96
2009-05-28 07:22:22 51°14.347 2°55.12 12.9 318 14.6 102720 96
2009-05-28 07:22:28 51°14.358 2°55.1 13 318 14.6 102710 96
2009-05-28 07:22:32 51°14.366 2°55.087 13.3 318 14.6 102710 96
2009-05-28 07:22:37 51°14.375 2°55.07 13.2 321 14.6 102710 96
2009-05-28 07:22:43 51°14.386 2°55.048 11 320 14.6 102710 96
2009-05-28 07:22:47 51°14.393 2°55.033 11.3 320 14.5 102710 96
2009-05-28 07:22:52 51°14.402 2°55.014 12.6 316 14.5 102710 96
2009-05-28 07:22:57 51°14.411 2°54.995 10.9 319 14.5 102710 96
2009-05-28 07:23:02 51°14.42 2°54.975 12 319 14.5 102710 96
2009-05-28 07:23:07 51°14.429 2°54.955 13.3 318 14.5 102710 96
2009-05-28 07:23:12 51°14.438 2°54.935 13.1 318 14.5 102710 96
2009-05-28 07:23:17 51°14.448 2°54.914 13.2 318 14.5 102710 96
2009-05-28 07:23:23 51°14.459 2°54.889 13.9 317 14.5 102710 96
2009-05-28 07:23:27 51°14.468 2°54.873 13.8 316 14.5 102710 96
2009-05-28 07:23:32 51°14.478 2°54.852 14.6 315 14.5 102710 96
2009-05-28 07:23:38 51°14.49 2°54.828 14.2 22 14.5 102700 96
2009-05-28 07:23:42 51°14.499 2°54.812 13.3 317 14.5 102700 96
2009-05-28 07:23:47 51°14.509 2°54.792 13.5 21 14.5 102710 96
2009-05-28 07:23:52 51°14.52 2°54.772 11.4 38 14.5 102710 96
2009-05-28 07:23:57 51°14.532 2°54.753 11.4 317 14.5 102710 96
2009-05-28 07:24:03 51°14.545 2°54.729 11.2 33 14.5 102710 96
2009-05-28 07:24:07 51°14.554 2°54.714 13.9 286 14.5 102710 96
2009-05-28 07:24:12 51°14.565 2°54.694 13.8 33 14.5 102710 96
2009-05-28 07:24:17 51°14.577 2°54.675 13.2 315 14.5 102700 96
2009-05-28 07:24:22 51°14.589 2°54.657 12 32 14.5 102700 96
2009-05-28 07:24:27 51°14.601 2°54.639 11.8 22 14.5 102710 96
2009-05-28 07:24:32 51°14.613 2°54.62 12.3 39 14.5 102710 96
2009-05-28 07:24:37 51°14.625 2°54.602 12.4 27 14.5 102710 97
2009-05-28 07:24:42 51°14.637 2°54.585 11.7 35 14.5 102710 97
2009-05-28 07:24:48 51°14.652 2°54.564 14.4 22 14.5 102700 96
2009-05-28 07:24:52 51°14.662 2°54.551 13.5 35 14.5 102700 96
2009-05-28 07:24:57 51°14.675 2°54.534 13.1 23 14.5 102700 96
2009-05-28 07:25:03 51°14.69 2°54.515 11.2 38 14.5 102700 96
2009-05-28 07:25:07 51°14.7 2°54.502 13.1 28 14.5 102700 96
2009-05-28 07:25:12 51°14.713 2°54.486 13.5 34 14.5 102700 96
2009-05-28 07:25:17 51°14.727 2°54.47 12.9 26 14.4 102700 96
2009-05-28 07:25:22 51°14.739 2°54.454 12.3 33 14.4 102700 96
2009-05-28 07:25:27 51°14.752 2°54.438 11.2 23 14.4 102710 97
2009-05-28 07:25:32 51°14.765 2°54.423 13.6 38 14.4 102710 97
2009-05-28 07:25:37 51°14.778 2°54.407 13.5 22 14.4 102710 97
2009-05-28 07:25:43 51°14.794 2°54.388 12.2 33 14.4 102710 97
2009-05-28 07:25:47 51°14.804 2°54.375 11.4 23 14.4 102700 97
2009-05-28 07:25:52 51°14.817 2°54.359 13.2 30 14.4 102700 97
2009-05-28 07:25:58 51°14.833 2°54.341 12.8 20 14.4 102690 97
2009-05-28 07:26:03 51°14.847 2°54.326 12.6 37 14.4 102690 97
2009-05-28 07:26:08 51°14.86 2°54.311 13.5 23 14.4 102690 97
2009-05-28 07:26:12 51°14.871 2°54.3 11.8 32 14.4 102690 97
2009-05-28 07:26:17 51°14.884 2°54.285 12.9 21 14.4 102690 97
2009-05-28 07:26:22 51°14.897 2°54.271 13.4 34 14.4 102690 97
2009-05-28 07:26:28 51°14.914 2°54.254 10.8 25 14.4 102680 97
2009-05-28 07:26:32 51°14.925 2°54.243 14.2 40 14.4 102680 97
2009-05-28 07:26:36 51°14.935 2°54.231 13.7 29 14.4 102690 97
2009-05-28 07:26:42 51°14.951 2°54.215 15 36 14.4 102690 97
2009-05-28 07:26:47 51°14.965 2°54.201 10.7 282 14.4 102690 97
2009-05-28 07:26:52 51°14.979 2°54.188 13.3 34 14.4 102690 97
2009-05-28 07:26:57 51°14.992 2°54.174 10.6 24 14.4 102690 97
2009-05-28 07:27:03 51°15.008 2°54.158 14.2 35 14.4 102690 97
2009-05-28 07:27:07 51°15.019 2°54.147 13.8 24 14.3 102700 97
2009-05-28 07:27:12 51°15.033 2°54.133 12.6 33 14.3 102700 97
2009-05-28 07:27:17 51°15.046 2°54.119 13.9 22 14.4 102690 97
2009-05-28 07:27:22 51°15.06 2°54.105 13.6 32 14.4 102690 97
2009-05-28 07:27:27 51°15.073 2°54.091 14.6 24 14.4 102690 97
2009-05-28 07:27:32 51°15.087 2°54.077 14.5 36 14.4 102690 97
2009-05-28 07:27:37 51°15.1 2°54.063 13.1 24 14.3 102700 97
2009-05-28 07:27:43 51°15.117 2°54.046 14.6 36 14.3 102700 97
2009-05-28 07:27:47 51°15.128 2°54.035 14.5 22 14.3 102690 97
2009-05-28 07:27:52 51°15.142 2°54.021 11.2 40 14.3 102690 97
2009-05-28 07:27:58 51°15.159 2°54.006 10.5 27 14.3 102690 97
2009-05-28 07:28:03 51°15.173 2°53.993 11.3 36 14.3 102690 97
2009-05-28 07:28:07 51°15.184 2°53.982 12.9 25 14.3 102690 97
2009-05-28 07:28:12 51°15.198 2°53.97 12.2 35 14.3 102690 97
2009-05-28 07:28:17 51°15.212 2°53.957 13.9 281 14.3 102700 97
2009-05-28 07:28:23 51°15.229 2°53.942 11.6 38 14.3 102700 97
2009-05-28 07:28:27 51°15.24 2°53.932 14.4 23 14.3 102700 97
2009-05-28 07:28:32 51°15.254 2°53.919 11.2 36 14.3 102700 97
2009-05-28 07:28:37 51°15.268 2°53.906 13.4 24 14.3 102690 97
2009-05-28 07:28:43 51°15.284 2°53.89 11.9 34 14.3 102690 97
2009-05-28 07:28:48 51°15.299 2°53.878 10.3 24 14.3 102690 97
2009-05-28 07:28:52 51°15.31 2°53.868 13.4 37 14.3 102690 97
2009-05-28 07:28:57 51°15.324 2°53.856 12.2 22 14.3 102690 97
2009-05-28 07:29:02 51°15.338 2°53.843 11.2 31 14.3 102690 97
2009-05-28 07:29:07 51°15.352 2°53.831 14.1 24 14.3 102690 97
2009-05-28 07:29:12 51°15.366 2°53.818 14 36 14.3 102690 97
2009-05-28 07:29:17 51°15.381 2°53.806 13.1 22 14.3 102700 97
2009-05-28 07:29:22 51°15.395 2°53.793 11.2 37 14.3 102700 97
2009-05-28 07:29:27 51°15.409 2°53.781 13.5 23 14.3 102700 97
2009-05-28 07:29:32 51°15.423 2°53.769 11.5 36 14.3 102700 97
2009-05-28 07:29:37 51°15.437 2°53.756 11.9 24 14.3 102700 97
2009-05-28 07:29:43 51°15.455 2°53.742 13.5 33 14.3 102700 97
2009-05-28 07:29:47 51°15.466 2°53.732 11.7 25 14.3 102700 97
2009-05-28 07:29:52 51°15.481 2°53.721 14.1 31 14.3 102700 97
2009-05-28 07:29:57 51°15.495 2°53.709 11.4 25 14.3 102700 97
2009-05-28 07:30:02 51°15.509 2°53.697 10.7 33 14.3 102700 97
2009-05-28 07:30:07 51°15.523 2°53.685 12.1 22 14.3 102700 97
2009-05-28 07:30:12 51°15.538 2°53.674 13.1 33 14.3 102700 97
2009-05-28 07:30:17 51°15.552 2°53.662 11.3 277 14.2 102690 97
2009-05-28 07:30:23 51°15.57 2°53.648 12.9 38 14.2 102690 97
2009-05-28 07:30:27 51°15.581 2°53.638 12 28 14.2 102700 97
2009-05-28 07:30:32 51°15.595 2°53.627 13 35 14.2 102700 97
2009-05-28 07:30:36 51°15.607 2°53.618 12.7 24 14.2 102700 97
2009-05-28 07:30:43 51°15.627 2°53.601 9.7 34 14.2 102700 97
2009-05-28 07:30:47 51°15.639 2°53.592 11.5 281 14.2 102680 97
2009-05-28 07:30:52 51°15.653 2°53.58 12.8 39 14.2 102680 97
2009-05-28 07:30:57 51°15.667 2°53.568 10.9 25 14.2 102700 97
2009-05-28 07:31:02 51°15.682 2°53.556 12.7 33 14.2 102700 97
2009-05-28 07:31:07 51°15.696 2°53.544 13.4 21 14.2 102690 97
2009-05-28 07:31:12 51°15.711 2°53.532 12.7 34 14.2 102690 97
2009-05-28 07:31:17 51°15.725 2°53.52 11.7 26 14.2 102690 97
2009-05-28 07:31:22 51°15.739 2°53.508 12.9 34 14.2 102690 97
2009-05-28 07:31:27 51°15.754 2°53.496 11 23 14.2 102700 97
2009-05-28 07:31:32 51°15.768 2°53.484 12.8 34 14.2 102700 97
2009-05-28 07:31:37 51°15.783 2°53.472 11 24 14.2 102700 97
2009-05-28 07:31:43 51°15.8 2°53.457 13.9 33 14.2 102700 97
2009-05-28 07:31:47 51°15.812 2°53.448 11.4 19 14.2 102680 97
2009-05-28 07:31:52 51°15.826 2°53.435 11.1 234 14.2 102680 97
2009-05-28 07:31:57 51°15.841 2°53.423 14.5 26 14.2 102690 97
2009-05-28 07:32:02 51°15.855 2°53.412 12.7 35 14.2 102690 97
2009-05-28 07:32:07 51°15.87 2°53.399 13.2 21 14.2 102680 98
2009-05-28 07:32:12 51°15.884 2°53.387 11.5 33 14.2 102680 98
2009-05-28 07:32:17 51°15.899 2°53.375 12 24 14.2 102680 97
2009-05-28 07:32:23 51°15.916 2°53.36 13.1 37 14.2 102680 97
2009-05-28 07:32:27 51°15.928 2°53.35 11.5 24 14.2 102670 97
2009-05-28 07:32:32 51°15.942 2°53.338 11.6 36 14.2 102670 97
2009-05-28 07:32:37 51°15.957 2°53.326 11.8 21 14.2 102680 98
2009-05-28 07:32:43 51°15.975 2°53.311 14.3 33 14.2 102680 98
2009-05-28 07:32:47 51°15.986 2°53.301 11.9 24 14.2 102680 98
2009-05-28 07:32:52 51°16.001 2°53.289 11.7 36 14.2 102680 98
2009-05-28 07:32:57 51°16.016 2°53.277 14.9 283 14.2 102680 98
2009-05-28 07:33:03 51°16.033 2°53.261 13.1 234 14.2 102680 98
2009-05-28 07:33:08 51°16.047 2°53.249 13.5 22 14.2 102680 97
2009-05-28 07:33:12 51°16.059 2°53.24 14.9 36 14.2 102680 97
2009-05-28 07:33:17 51°16.073 2°53.227 13.3 26 14.2 102670 97
2009-05-28 07:33:22 51°16.088 2°53.215 13.6 33 14.2 102670 97
2009-05-28 07:33:27 51°16.102 2°53.202 13.9 20 14.2 102670 97
2009-05-28 07:33:32 51°16.117 2°53.191 11.1 38 14.2 102670 97
2009-05-28 07:33:37 51°16.131 2°53.178 13.4 24 14.2 102680 97
2009-05-28 07:33:42 51°16.146 2°53.166 14.6 36 14.2 102680 97
2009-05-28 07:33:48 51°16.163 2°53.151 14.5 26 14.2 102680 98
2009-05-28 07:33:52 51°16.175 2°53.141 13.2 34 14.2 102680 98
2009-05-28 07:33:57 51°16.19 2°53.129 11 26 14.2 102680 98
2009-05-28 07:34:03 51°16.207 2°53.114 14 36 14.2 102680 98
2009-05-28 07:34:07 51°16.218 2°53.104 13.1 24 14.2 102680 97
2009-05-28 07:34:12 51°16.233 2°53.091 13.1 37 14.2 102680 97
2009-05-28 07:34:17 51°16.247 2°53.079 12.5 22 14.2 102680 98
2009-05-28 07:34:22 51°16.262 2°53.066 11.3 31 14.2 102680 98
2009-05-28 07:34:27 51°16.276 2°53.054 12.3 22 14.2 102680 98
2009-05-28 07:34:32 51°16.291 2°53.042 13.5 38 14.2 102680 98
2009-05-28 07:34:37 51°16.305 2°53.03 13.6 26 14.2 102680 98
2009-05-28 07:34:43 51°16.323 2°53.015 14 38 14.2 102680 98
2009-05-28 07:34:47 51°16.334 2°53.005 12.1 26 14.2 102690 98
2009-05-28 07:34:52 51°16.349 2°52.993 10.3 230 14.2 102690 98
2009-05-28 07:34:57 51°16.363 2°52.98 10.9 29 14.1 102690 98
2009-05-28 07:35:03 51°16.38 2°52.966 14.2 33 14.1 102690 98
2009-05-28 07:35:07 51°16.392 2°52.956 14 21 14.1 102680 98
2009-05-28 07:35:12 51°16.407 2°52.944 12.8 35 14.1 102680 98
2009-05-28 07:35:17 51°16.421 2°52.931 12.9 26 14.1 102680 98
2009-05-28 07:35:23 51°16.438 2°52.916 13.1 36 14.1 102680 98
2009-05-28 07:35:27 51°16.45 2°52.906 11.5 27 14.2 102690 98
2009-05-28 07:35:32 51°16.464 2°52.893 11.3 37 14.2 102690 98
2009-05-28 07:35:37 51°16.479 2°52.881 12.8 23 14.1 102690 98
2009-05-28 07:35:42 51°16.493 2°52.869 11.5 33 14.1 102690 98
2009-05-28 07:35:47 51°16.507 2°52.857 12.4 287 14.1 102690 98
2009-05-28 07:35:52 51°16.522 2°52.844 11.5 36 14.1 102690 98
2009-05-28 07:35:57 51°16.536 2°52.832 11.1 26 14.1 102690 98
2009-05-28 07:36:03 51°16.554 2°52.818 11.5 33 14.1 102690 98
2009-05-28 07:36:07 51°16.565 2°52.808 13.2 24 14.2 102690 98
2009-05-28 07:36:12 51°16.58 2°52.796 12 35 14.2 102690 98
2009-05-28 07:36:17 51°16.594 2°52.784 11.9 26 14.1 102690 98
2009-05-28 07:36:22 51°16.609 2°52.772 14.2 33 14.1 102690 98
2009-05-28 07:36:27 51°16.623 2°52.76 12.3 21 14.1 102680 98
2009-05-28 07:36:32 51°16.638 2°52.747 14.4 36 14.1 102680 98
2009-05-28 07:36:37 51°16.652 2°52.735 14.1 24 14.1 102690 98
2009-05-28 07:36:43 51°16.669 2°52.72 13.1 38 14.1 102690 98
2009-05-28 07:36:47 51°16.681 2°52.711 11.4 27 14.1 102690 98
2009-05-28 07:36:52 51°16.695 2°52.7 10.8 233 14.1 102690 98
2009-05-28 07:36:57 51°16.71 2°52.688 13.3 24 14.1 102690 98
2009-05-28 07:37:02 51°16.725 2°52.678 11.4 35 14.1 102690 98
2009-05-28 07:37:07 51°16.739 2°52.667 11.6 22 14.1 102690 98
2009-05-28 07:37:12 51°16.754 2°52.658 12 34 14.1 102690 98
2009-05-28 07:37:17 51°16.769 2°52.648 11.6 278 14.1 102690 98
2009-05-28 07:37:23 51°16.787 2°52.637 11.2 231 14.1 102690 98
2009-05-28 07:37:27 51°16.799 2°52.63 12.4 282 14.1 102680 98
2009-05-28 07:37:32 51°16.814 2°52.62 10.7 32 14.1 102680 98
2009-05-28 07:37:37 51°16.829 2°52.611 11.4 21 14.1 102690 98
2009-05-28 07:37:43 51°16.848 2°52.601 11.2 33 14.1 102690 98
2009-05-28 07:37:47 51°16.86 2°52.594 11.5 22 14.1 102690 98
2009-05-28 07:37:52 51°16.875 2°52.586 11.2 235 14.1 102690 98
2009-05-28 07:37:57 51°16.891 2°52.58 12.3 25 14.1 102690 98
2009-05-28 07:38:03 51°16.909 2°52.574 11.2 238 14.1 102690 98
2009-05-28 07:38:08 51°16.925 2°52.57 13.3 20 14.1 102690 98
2009-05-28 07:38:12 51°16.937 2°52.566 12.6 237 14.1 102690 98
2009-05-28 07:38:17 51°16.953 2°52.563 11.1 23 14.1 102680 98
2009-05-28 07:38:23 51°16.973 2°52.56 12.1 242 14.1 102680 98
2009-05-28 07:38:28 51°16.989 2°52.557 11.6 21 14.1 102690 98
2009-05-28 07:38:32 51°17.001 2°52.555 11.4 240 14.1 102690 98
2009-05-28 07:38:37 51°17.017 2°52.553 11.5 21 14.1 102690 98
2009-05-28 07:38:42 51°17.033 2°52.551 11 240 14.1 102690 98
2009-05-28 07:38:47 51°17.049 2°52.549 12.4 23 14.1 102690 98
2009-05-28 07:38:52 51°17.065 2°52.547 12.3 240 14.1 102690 98
2009-05-28 07:38:57 51°17.081 2°52.545 11.6 21 14.1 102680 98
2009-05-28 07:39:03 51°17.1 2°52.543 10.6 239 14.1 102680 98
2009-05-28 07:39:07 51°17.113 2°52.542 12.5 22 14.1 102680 98
2009-05-28 07:39:12 51°17.129 2°52.54 11.5 235 14.1 102680 98
2009-05-28 07:39:17 51°17.145 2°52.538 11.9 25 14.1 102690 98
2009-05-28 07:39:23 51°17.164 2°52.537 10.9 31 14.1 102690 98
2009-05-28 07:39:27 51°17.177 2°52.535 10.8 24 14.1 102690 98
2009-05-28 07:39:32 51°17.192 2°52.535 13.5 241 14.1 102690 98
2009-05-28 07:39:37 51°17.208 2°52.533 11.6 22 14.1 102700 95
2009-05-28 07:39:43 51°17.227 2°52.532 11 240 14.1 102700 95
2009-05-28 07:39:48 51°17.243 2°52.531 11.2 27 14.1 102700 96
2009-05-28 07:39:52 51°17.256 2°52.529 12.6 31 14.1 102700 96
2009-05-28 07:39:57 51°17.272 2°52.528 10.9 24 14.1 102690 95
2009-05-28 07:40:03 51°17.291 2°52.525 12.5 240 14.1 102690 95
2009-05-28 07:40:08 51°17.307 2°52.524 10.4 27 14.1 102690 95
2009-05-28 07:40:12 51°17.32 2°52.523 13.3 240 14.1 102690 95
2009-05-28 07:40:17 51°17.335 2°52.52 12.4 25 14.1 102680 95
2009-05-28 07:40:22 51°17.351 2°52.519 11.6 237 14.1 102680 95
2009-05-28 07:40:28 51°17.37 2°52.516 10.8 26 14.1 102690 95
2009-05-28 07:40:32 51°17.383 2°52.515 10.4 238 14.1 102690 95
2009-05-28 07:40:36 51°17.396 2°52.513 10.8 23 14.1 102690 96
2009-05-28 07:40:42 51°17.415 2°52.511 12.3 237 14.1 102690 96
2009-05-28 07:40:47 51°17.431 2°52.51 11.1 280 14.1 102690 95
2009-05-28 07:40:52 51°17.446 2°52.507 10.8 238 14.1 102690 95
2009-05-28 07:40:57 51°17.462 2°52.505 9.9 27 14.2 102690 95
2009-05-28 07:41:03 51°17.481 2°52.502 12.5 238 14.2 102690 95
2009-05-28 07:41:07 51°17.494 2°52.502 9.9 25 14.1 102690 96
2009-05-28 07:41:12 51°17.51 2°52.499 12.5 239 14.1 102690 96
2009-05-28 07:41:17 51°17.526 2°52.497 10.4 27 14.1 102690 96
2009-05-28 07:41:22 51°17.542 2°52.495 12.9 32 14.1 102690 96
2009-05-28 07:41:27 51°17.557 2°52.493 9.6 25 14.2 102690 98
2009-05-28 07:41:32 51°17.573 2°52.491 12 238 14.2 102690 98
2009-05-28 07:41:37 51°17.589 2°52.488 12.4 22 14.1 102690 98
2009-05-28 07:41:43 51°17.608 2°52.487 12.2 240 14.1 102690 98
2009-05-28 07:41:47 51°17.621 2°52.484 10.8 22 14.2 102690 98
2009-05-28 07:41:52 51°17.637 2°52.484 9.9 241 14.2 102690 98
2009-05-28 07:41:57 51°17.652 2°52.481 10.2 23 14.2 102690 98
2009-05-28 07:42:03 51°17.671 2°52.48 9.6 238 14.2 102690 98
2009-05-28 07:42:08 51°17.687 2°52.478 11.6 23 14.2 102690 98
2009-05-28 07:42:12 51°17.7 2°52.477 9.9 241 14.2 102690 98
2009-05-28 07:42:17 51°17.716 2°52.477 10.5 26 14.2 102690 98
2009-05-28 07:42:22 51°17.732 2°52.475 11.2 241 14.2 102690 98
2009-05-28 07:42:28 51°17.751 2°52.474 12.3 28 14.2 102690 98
2009-05-28 07:42:32 51°17.763 2°52.474 13 242 14.2 102690 98
2009-05-28 07:42:36 51°17.776 2°52.473 12.2 27 14.2 102700 98
2009-05-28 07:42:42 51°17.795 2°52.471 9.9 241 14.2 102700 98
2009-05-28 07:42:47 51°17.811 2°52.47 9.7 281 14.2 102700 98
2009-05-28 07:42:52 51°17.827 2°52.47 10.4 241 14.2 102700 98
2009-05-28 07:42:57 51°17.843 2°52.468 11.4 21 14.2 102690 98
2009-05-28 07:43:02 51°17.859 2°52.467 12.2 240 14.2 102690 98
2009-05-28 07:43:07 51°17.874 2°52.466 12 282 14.2 102690 98
2009-05-28 07:43:12 51°17.89 2°52.465 11.8 241 14.2 102690 98
2009-05-28 07:43:17 51°17.906 2°52.463 11.8 22 14.2 102720 98
2009-05-28 07:43:23 51°17.925 2°52.462 10 243 14.2 102720 98
2009-05-28 07:43:27 51°17.938 2°52.461 8.7 22 14.2 102730 98
2009-05-28 07:43:32 51°17.954 2°52.462 10.6 242 14.2 102730 98
2009-05-28 07:43:37 51°17.97 2°52.462 10.3 243 14.2 102720 98
2009-05-28 07:43:43 51°17.989 2°52.465 9.9 247 14.2 102720 98
2009-05-28 07:43:47 51°18.001 2°52.467 10.5 245 14.2 102730 98
2009-05-28 07:43:52 51°18.017 2°52.47 9.6 241 14.2 102730 98
2009-05-28 07:43:57 51°18.032 2°52.473 8.1 26 14.2 102740 98
2009-05-28 07:44:03 51°18.051 2°52.478 10.6 244 14.2 102740 98
2009-05-28 07:44:07 51°18.063 2°52.481 8.6 27 14.2 102740 98
2009-05-28 07:44:12 51°18.078 2°52.485 10.1 241 14.2 102740 98
2009-05-28 07:44:17 51°18.094 2°52.489 9.5 24 14.2 102730 98
2009-05-28 07:44:23 51°18.112 2°52.495 8 242 14.2 102730 98
2009-05-28 07:44:27 51°18.125 2°52.498 7.7 280 14.2 102730 98
2009-05-28 07:44:32 51°18.14 2°52.503 9.5 244 14.2 102730 98
2009-05-28 07:44:37 51°18.156 2°52.506 10.1 23 14.2 102730 98
2009-05-28 07:44:43 51°18.174 2°52.513 8.3 242 14.2 102730 98
2009-05-28 07:44:48 51°18.189 2°52.518 8.2 22 14.2 102730 98
2009-05-28 07:44:52 51°18.201 2°52.522 8.6 244 14.2 102730 98
2009-05-28 07:44:57 51°18.217 2°52.527 9.3 23 14.2 102730 98
2009-05-28 07:45:02 51°18.232 2°52.532 8.4 243 14.2 102730 98
2009-05-28 07:45:07 51°18.247 2°52.536 9.1 285 14.2 102730 98
2009-05-28 07:45:12 51°18.263 2°52.542 8.1 245 14.2 102730 98
2009-05-28 07:45:17 51°18.278 2°52.547 10.2 246 14.2 102730 98
2009-05-28 07:45:23 51°18.296 2°52.554 8.7 247 14.2 102730 98
2009-05-28 07:45:28 51°18.311 2°52.559 8.9 248 14.2 102740 98
2009-05-28 07:45:32 51°18.323 2°52.566 9.7 244 14.2 102740 98
2009-05-28 07:45:37 51°18.338 2°52.572 8.5 22 14.2 102740 98
2009-05-28 07:45:43 51°18.357 2°52.58 8 251 14.2 102740 98
2009-05-28 07:45:47 51°18.368 2°52.585 9.1 250 14.2 102730 98
2009-05-28 07:45:52 51°18.384 2°52.592 7.1 252 14.2 102730 98
2009-05-28 07:45:57 51°18.399 2°52.599 7.2 249 14.2 102730 98
2009-05-28 07:46:03 51°18.416 2°52.607 7.9 251 14.2 102730 98
2009-05-28 07:46:07 51°18.428 2°52.614 8.5 251 14.2 102730 98
2009-05-28 07:46:12 51°18.444 2°52.619 7.5 250 14.2 102730 98
2009-05-28 07:46:17 51°18.458 2°52.628 7.7 250 14.2 102730 98
2009-05-28 07:46:23 51°18.476 2°52.635 7.9 247 14.2 102730 98
2009-05-28 07:46:28 51°18.491 2°52.643 8.4 248 14.2 102730 98
2009-05-28 07:46:32 51°18.503 2°52.648 8.5 249 14.2 102730 98
2009-05-28 07:46:37 51°18.518 2°52.655 8.5 250 14.2 102730 98
2009-05-28 07:46:43 51°18.536 2°52.664 9.2 245 14.2 102730 98
2009-05-28 07:46:48 51°18.551 2°52.67 9.3 23 14.2 102740 98
2009-05-28 07:46:52 51°18.563 2°52.676 9.8 249 14.2 102740 98
2009-05-28 07:46:57 51°18.578 2°52.683 7.9 246 14.2 102730 98
2009-05-28 07:47:03 51°18.596 2°52.691 8.7 243 14.2 102730 98
2009-05-28 07:47:07 51°18.608 2°52.697 9.5 285 14.2 102740 98
2009-05-28 07:47:12 51°18.623 2°52.703 9.6 247 14.2 102740 98
2009-05-28 07:47:17 51°18.638 2°52.71 8.5 22 14.2 102740 98
2009-05-28 07:47:23 51°18.656 2°52.719 7.3 243 14.2 102740 98
2009-05-28 07:47:27 51°18.668 2°52.723 8.9 23 14.2 102740 98
2009-05-28 07:47:32 51°18.683 2°52.73 8.9 245 14.2 102740 98
2009-05-28 07:47:37 51°18.699 2°52.737 7.8 245 14.2 102740 98
2009-05-28 07:47:42 51°18.714 2°52.743 9.5 245 14.2 102740 98
2009-05-28 07:47:47 51°18.729 2°52.749 8.3 245 14.2 102740 98
2009-05-28 07:47:52 51°18.744 2°52.756 8.7 245 14.2 102740 98
2009-05-28 07:47:57 51°18.759 2°52.763 8.9 283 14.2 102740 98
2009-05-28 07:48:03 51°18.777 2°52.771 8.3 248 14.2 102740 98
2009-05-28 07:48:07 51°18.789 2°52.775 7.8 249 14.2 102740 98
2009-05-28 07:48:12 51°18.804 2°52.783 8.8 250 14.2 102740 98
2009-05-28 07:48:17 51°18.819 2°52.789 9.5 251 14.2 102740 98
2009-05-28 07:48:23 51°18.838 2°52.796 9.7 251 14.2 102740 98
2009-05-28 07:48:27 51°18.85 2°52.802 9 248 14.2 102740 98
2009-05-28 07:48:32 51°18.865 2°52.807 8.5 245 14.2 102740 98
2009-05-28 07:48:37 51°18.88 2°52.814 7.1 19 14.2 102740 98
2009-05-28 07:48:43 51°18.899 2°52.821 8.9 247 14.2 102740 98
2009-05-28 07:48:47 51°18.911 2°52.826 9.7 250 14.2 102730 98
2009-05-28 07:48:52 51°18.926 2°52.833 8 248 14.2 102730 98
2009-05-28 07:48:56 51°18.938 2°52.837 7.4 20 14.2 102750 98
2009-05-28 07:49:03 51°18.959 2°52.847 9.6 245 14.2 102750 98
2009-05-28 07:49:07 51°18.971 2°52.852 9.5 282 14.2 102740 98
2009-05-28 07:49:12 51°18.987 2°52.858 9.1 248 14.2 102740 98
2009-05-28 07:49:17 51°19.002 2°52.865 7.9 243 14.2 102730 98
2009-05-28 07:49:23 51°19.02 2°52.872 9.5 248 14.2 102730 98
2009-05-28 07:49:27 51°19.032 2°52.877 8.8 22 14.2 102740 98
2009-05-28 07:49:32 51°19.047 2°52.883 8.6 247 14.2 102740 98
2009-05-28 07:49:37 51°19.062 2°52.89 9 247 14.2 102730 98
2009-05-28 07:49:42 51°19.078 2°52.895 6.4 244 14.2 102730 98
2009-05-28 07:49:48 51°19.096 2°52.904 8.2 245 14.2 102740 98
2009-05-28 07:49:52 51°19.108 2°52.907 8.3 244 14.2 102740 98
2009-05-28 07:49:57 51°19.123 2°52.915 8.5 21 14.2 102740 98
2009-05-28 07:50:03 51°19.142 2°52.921 7.9 248 14.2 102740 98
2009-05-28 07:50:07 51°19.154 2°52.926 8.5 19 14.2 102750 98
2009-05-28 07:50:12 51°19.169 2°52.932 8 247 14.2 102750 98
2009-05-28 07:50:17 51°19.184 2°52.938 9.2 250 14.2 102750 98
2009-05-28 07:50:23 51°19.202 2°52.945 7.7 245 14.2 102750 98
2009-05-28 07:50:27 51°19.214 2°52.95 9.2 19 14.2 102740 98
2009-05-28 07:50:32 51°19.229 2°52.957 8.8 246 14.2 102740 98
2009-05-28 07:50:37 51°19.245 2°52.962 7.6 245 14.2 102740 98
2009-05-28 07:50:43 51°19.263 2°52.97 9.2 246 14.2 102740 98
2009-05-28 07:50:47 51°19.275 2°52.974 7.8 247 14.2 102740 98
2009-05-28 07:50:52 51°19.29 2°52.98 8.1 246 14.2 102740 98
2009-05-28 07:50:58 51°19.308 2°52.988 7.6 24 14.2 102740 98
2009-05-28 07:51:03 51°19.324 2°52.994 8.5 242 14.2 102740 98
2009-05-28 07:51:08 51°19.339 2°53 8.2 23 14.2 102740 98
2009-05-28 07:51:12 51°19.351 2°53.004 6.2 240 14.2 102740 98
2009-05-28 07:51:17 51°19.366 2°53.012 6.8 20 14.2 102740 98
2009-05-28 07:51:23 51°19.385 2°53.019 6.9 247 14.2 102740 98
2009-05-28 07:51:28 51°19.4 2°53.025 8 245 14.2 102750 98
2009-05-28 07:51:32 51°19.412 2°53.031 8.3 242 14.2 102750 98
2009-05-28 07:51:36 51°19.425 2°53.036 7.8 23 14.2 102740 98
2009-05-28 07:51:43 51°19.446 2°53.045 8.6 245 14.2 102740 98
2009-05-28 07:51:48 51°19.461 2°53.051 8.3 248 14.2 102740 98
2009-05-28 07:51:52 51°19.473 2°53.057 8.1 245 14.2 102740 98
2009-05-28 07:51:56 51°19.486 2°53.061 7.8 245 14.2 102750 98
2009-05-28 07:52:02 51°19.504 2°53.07 8.3 243 14.2 102750 98
2009-05-28 07:52:07 51°19.519 2°53.074 10 19 14.2 102750 98
2009-05-28 07:52:12 51°19.535 2°53.082 8.6 245 14.2 102750 98
2009-05-28 07:52:17 51°19.55 2°53.087 7.2 21 14.3 102740 98
2009-05-28 07:52:23 51°19.568 2°53.095 8.7 244 14.3 102740 98
2009-05-28 07:52:27 51°19.58 2°53.099 7.8 21 14.2 102750 98
2009-05-28 07:52:32 51°19.596 2°53.105 7.1 242 14.2 102750 98
2009-05-28 07:52:37 51°19.611 2°53.111 8.2 27 14.2 102740 98
2009-05-28 07:52:42 51°19.626 2°53.117 7.7 243 14.2 102740 98
2009-05-28 07:52:47 51°19.642 2°53.123 8.8 23 14.3 102750 98
2009-05-28 07:52:52 51°19.657 2°53.129 8.1 240 14.3 102750 98
2009-05-28 07:52:57 51°19.672 2°53.137 7.1 24 14.3 102750 98
2009-05-28 07:53:03 51°19.69 2°53.145 6.9 247 14.3 102750 98
2009-05-28 07:53:07 51°19.702 2°53.152 7.7 22 14.3 102750 98
2009-05-28 07:53:12 51°19.717 2°53.16 9 245 14.3 102750 98
2009-05-28 07:53:17 51°19.732 2°53.168 7.7 246 14.3 102750 98
2009-05-28 07:53:23 51°19.749 2°53.178 7.5 245 14.3 102750 98
2009-05-28 07:53:28 51°19.764 2°53.186 7.1 24 14.3 102740 98
2009-05-28 07:53:32 51°19.776 2°53.192 6.8 240 14.3 102740 98
2009-05-28 07:53:37 51°19.791 2°53.201 8.1 26 14.3 102750 98
2009-05-28 07:53:43 51°19.809 2°53.211 7.5 243 14.3 102750 98
2009-05-28 07:53:48 51°19.823 2°53.22 7.5 24 14.3 102750 98
2009-05-28 07:53:52 51°19.835 2°53.227 8.7 247 14.3 102750 98
2009-05-28 07:53:57 51°19.849 2°53.236 8.5 247 14.3 102740 98
2009-05-28 07:54:03 51°19.866 2°53.247 8.2 248 14.3 102740 98
2009-05-28 07:54:08 51°19.881 2°53.256 7.9 246 14.3 102750 98
2009-05-28 07:54:12 51°19.893 2°53.263 7.4 239 14.3 102750 98
2009-05-28 07:54:17 51°19.907 2°53.272 7.2 21 14.3 102750 98
2009-05-28 07:54:23 51°19.925 2°53.281 5.8 244 14.3 102750 98
2009-05-28 07:54:27 51°19.936 2°53.289 7.6 27 14.3 102750 98
2009-05-28 07:54:32 51°19.951 2°53.296 8 246 14.3 102750 98
2009-05-28 07:54:37 51°19.965 2°53.305 7.6 21 14.3 102740 98
2009-05-28 07:54:43 51°19.983 2°53.316 7.1 245 14.3 102740 98
2009-05-28 07:54:47 51°19.995 2°53.322 8.8 245 14.3 102760 98
2009-05-28 07:54:52 51°20.009 2°53.332 8.1 242 14.3 102760 98
2009-05-28 07:54:57 51°20.023 2°53.34 7 21 14.3 102750 98
2009-05-28 07:55:03 51°20.04 2°53.351 6.6 241 14.3 102750 98
2009-05-28 07:55:07 51°20.052 2°53.358 8.9 23 14.3 102740 98
2009-05-28 07:55:13 51°20.069 2°53.369 7.4 243 14.3 102740 98
2009-05-28 07:55:17 51°20.08 2°53.376 8.7 24 14.3 102740 98
2009-05-28 07:55:23 51°20.098 2°53.386 7.9 247 14.3 102740 98
2009-05-28 07:55:27 51°20.109 2°53.393 9.1 20 14.3 102750 98
2009-05-28 07:55:32 51°20.124 2°53.401 7 246 14.3 102750 98
2009-05-28 07:55:37 51°20.139 2°53.41 8.3 19 14.3 102750 98
2009-05-28 07:55:43 51°20.156 2°53.421 7.1 244 14.3 102750 98
2009-05-28 07:55:48 51°20.17 2°53.428 8.9 20 14.3 102760 98
2009-05-28 07:55:52 51°20.182 2°53.437 9.5 246 14.3 102760 98
2009-05-28 07:55:57 51°20.196 2°53.444 9.1 22 14.3 102740 98
2009-05-28 07:56:02 51°20.211 2°53.453 8.4 244 14.3 102740 98
2009-05-28 07:56:07 51°20.225 2°53.463 8.6 20 14.3 102750 98
2009-05-28 07:56:12 51°20.239 2°53.47 8.5 247 14.3 102750 98
2009-05-28 07:56:17 51°20.254 2°53.479 8.8 21 14.3 102750 98
2009-05-28 07:56:22 51°20.268 2°53.487 7.5 248 14.3 102750 98
2009-05-28 07:56:28 51°20.285 2°53.498 8.1 247 14.3 102760 98
2009-05-28 07:56:32 51°20.297 2°53.505 8.1 246 14.3 102760 98
2009-05-28 07:56:37 51°20.311 2°53.514 6.6 22 14.3 102750 98
2009-05-28 07:56:43 51°20.328 2°53.525 7.8 245 14.3 102750 98
2009-05-28 07:56:48 51°20.342 2°53.534 7.6 246 14.3 102750 98
2009-05-28 07:56:52 51°20.353 2°53.543 7.3 246 14.3 102750 98
2009-05-28 07:56:57 51°20.368 2°53.551 8 25 14.3 102750 98
2009-05-28 07:57:02 51°20.382 2°53.562 7.7 242 14.3 102750 98
2009-05-28 07:57:07 51°20.396 2°53.571 9.1 247 14.3 102750 98
2009-05-28 07:57:13 51°20.413 2°53.582 7.4 242 14.3 102750 98
2009-05-28 07:57:17 51°20.424 2°53.591 7.7 247 14.3 102750 98
2009-05-28 07:57:23 51°20.442 2°53.601 8.1 245 14.3 102750 98
2009-05-28 07:57:27 51°20.453 2°53.609 7.9 248 14.3 102750 98
2009-05-28 07:57:32 51°20.467 2°53.618 6.7 242 14.3 102750 98
2009-05-28 07:57:37 51°20.482 2°53.628 7.8 22 14.3 102750 98
2009-05-28 07:57:43 51°20.499 2°53.639 7.8 247 14.3 102750 98
2009-05-28 07:57:47 51°20.51 2°53.647 7.4 248 14.3 102750 98
2009-05-28 07:57:52 51°20.524 2°53.655 6.5 248 14.3 102750 98
2009-05-28 07:57:57 51°20.538 2°53.666 8.3 247 14.3 102760 98
2009-05-28 07:58:03 51°20.556 2°53.675 6.6 245 14.3 102760 98
2009-05-28 07:58:08 51°20.57 2°53.684 8 249 14.3 102750 98
2009-05-28 07:58:12 51°20.582 2°53.691 7.7 244 14.3 102750 98
2009-05-28 07:58:17 51°20.596 2°53.7 8.1 22 14.3 102760 98
2009-05-28 07:58:23 51°20.613 2°53.711 6.9 245 14.3 102760 98
2009-05-28 07:58:27 51°20.624 2°53.719 7.9 248 14.3 102760 98
2009-05-28 07:58:32 51°20.638 2°53.728 8.2 245 14.3 102760 98
2009-05-28 07:58:37 51°20.652 2°53.738 8.1 24 14.3 102760 98
2009-05-28 07:58:42 51°20.667 2°53.746 7 248 14.3 102760 98
2009-05-28 07:58:48 51°20.684 2°53.757 7.4 246 14.3 102760 98
2009-05-28 07:58:52 51°20.696 2°53.763 7.6 243 14.3 102760 98
2009-05-28 07:58:57 51°20.709 2°53.774 8.4 245 14.3 102760 98
2009-05-28 07:59:03 51°20.726 2°53.784 7.6 246 14.3 102760 98
2009-05-28 07:59:07 51°20.738 2°53.79 9.2 249 14.3 102750 98
2009-05-28 07:59:12 51°20.752 2°53.799 8.8 245 14.3 102750 98
2009-05-28 07:59:17 51°20.766 2°53.808 6.5 22 14.3 102760 98
2009-05-28 07:59:22 51°20.781 2°53.816 8.1 248 14.3 102760 98
2009-05-28 07:59:27 51°20.795 2°53.826 7.8 248 14.3 102750 98
2009-05-28 07:59:32 51°20.81 2°53.834 7.8 248 14.3 102750 98
2009-05-28 07:59:38 51°20.827 2°53.844 8.6 22 14.3 102760 98
2009-05-28 07:59:43 51°20.841 2°53.853 7.4 244 14.3 102760 98
2009-05-28 07:59:48 51°20.856 2°53.862 9.4 21 14.3 102750 98
2009-05-28 07:59:52 51°20.867 2°53.869 9.5 249 14.3 102750 98
2009-05-28 07:59:58 51°20.885 2°53.879 7.9 247 14.3 102760 98
2009-05-28 08:00:03 51°20.899 2°53.888 8.1 245 14.3 102760 98
2009-05-28 08:00:08 51°20.913 2°53.896 8.6 247 14.3 102760 98
2009-05-28 08:00:12 51°20.925 2°53.903 7.7 248 14.3 102760 98
2009-05-28 08:00:16 51°20.937 2°53.909 6.8 20 14.3 102760 98
2009-05-28 08:00:23 51°20.957 2°53.921 7.7 243 14.3 102760 98
2009-05-28 08:00:27 51°20.968 2°53.929 7.5 244 14.3 102750 98
2009-05-28 08:00:32 51°20.983 2°53.936 7.7 242 14.3 102750 98
2009-05-28 08:00:37 51°20.997 2°53.946 7.8 22 14.3 102750 98
2009-05-28 08:00:43 51°21.015 2°53.956 8 247 14.3 102750 98
2009-05-28 08:00:47 51°21.026 2°53.964 7 246 14.3 102760 98
2009-05-28 08:00:52 51°21.041 2°53.972 7.1 244 14.3 102760 98
2009-05-28 08:00:57 51°21.055 2°53.981 7.2 246 14.3 102750 98
2009-05-28 08:01:02 51°21.069 2°53.991 6 244 14.3 102750 98
2009-05-28 08:01:08 51°21.086 2°54.001 7.4 246 14.3 102750 98
2009-05-28 08:01:12 51°21.097 2°54.009 9 247 14.3 102750 98
2009-05-28 08:01:17 51°21.112 2°54.016 7.2 247 14.3 102750 98
2009-05-28 08:01:23 51°21.129 2°54.029 8.8 245 14.3 102750 98
2009-05-28 08:01:27 51°21.141 2°54.035 7.5 244 14.3 102750 98
2009-05-28 08:01:32 51°21.155 2°54.044 7.3 244 14.3 102750 98
2009-05-28 08:01:37 51°21.169 2°54.054 7.8 23 14.4 102750 98
2009-05-28 08:01:42 51°21.184 2°54.061 7.8 245 14.4 102750 98
2009-05-28 08:01:47 51°21.198 2°54.072 8.3 23 14.3 102750 98
2009-05-28 08:01:52 51°21.212 2°54.079 7.2 243 14.3 102750 98
2009-05-28 08:01:58 51°21.23 2°54.09 8 24 14.3 102760 98
2009-05-28 08:02:03 51°21.244 2°54.098 8.2 246 14.3 102760 98
2009-05-28 08:02:08 51°21.259 2°54.107 7.6 245 14.3 102750 98
2009-05-28 08:02:12 51°21.27 2°54.114 9 246 14.3 102750 98
2009-05-28 08:02:18 51°21.288 2°54.123 9.2 247 14.3 102750 98
2009-05-28 08:02:23 51°21.302 2°54.132 8.3 247 14.3 102750 98
2009-05-28 08:02:28 51°21.316 2°54.14 8.1 249 14.3 102750 98
2009-05-28 08:02:32 51°21.328 2°54.147 7.1 244 14.3 102750 98
2009-05-28 08:02:37 51°21.342 2°54.155 9.3 247 14.3 102750 98
2009-05-28 08:02:43 51°21.36 2°54.166 8.5 247 14.3 102750 98
2009-05-28 08:02:48 51°21.374 2°54.174 7.7 20 14.4 102750 98
2009-05-28 08:02:52 51°21.385 2°54.181 7.2 249 14.4 102750 98
2009-05-28 08:02:57 51°21.399 2°54.19 7 247 14.3 102750 98
2009-05-28 08:03:03 51°21.416 2°54.203 8.2 246 14.3 102750 98
2009-05-28 08:03:08 51°21.43 2°54.212 7.1 251 14.4 102750 98
2009-05-28 08:03:12 51°21.44 2°54.223 8.6 250 14.4 102750 98
2009-05-28 08:03:17 51°21.454 2°54.233 8.1 23 14.4 102750 98
2009-05-28 08:03:22 51°21.467 2°54.246 7.9 249 14.4 102750 98
2009-05-28 08:03:27 51°21.48 2°54.257 8.3 251 14.4 102750 98
2009-05-28 08:03:32 51°21.493 2°54.27 6.5 250 14.4 102750 98
2009-05-28 08:03:37 51°21.507 2°54.281 5.1 249 14.4 102750 98
2009-05-28 08:03:43 51°21.522 2°54.296 6.3 246 14.4 102750 98
2009-05-28 08:03:47 51°21.533 2°54.306 5.5 248 14.4 102750 98
2009-05-28 08:03:52 51°21.546 2°54.319 7.5 248 14.4 102750 98
2009-05-28 08:03:57 51°21.559 2°54.332 5 21 14.4 102750 98
2009-05-28 08:04:03 51°21.575 2°54.346 5.7 249 14.4 102750 98
2009-05-28 08:04:08 51°21.587 2°54.361 4.9 253 14.4 102740 98
2009-05-28 08:04:12 51°21.597 2°54.37 6.6 245 14.4 102740 98
2009-05-28 08:04:18 51°21.612 2°54.386 6 25 14.4 102750 98
2009-05-28 08:04:23 51°21.626 2°54.397 6.2 249 14.4 102750 98
2009-05-28 08:04:27 51°21.636 2°54.409 6.4 247 14.4 102750 98
2009-05-28 08:04:32 51°21.649 2°54.421 6.8 251 14.4 102750 98
2009-05-28 08:04:37 51°21.662 2°54.435 5.5 249 14.4 102750 98
2009-05-28 08:04:43 51°21.678 2°54.448 6.7 249 14.4 102750 98
2009-05-28 08:04:47 51°21.687 2°54.46 5.3 248 14.4 102750 98
2009-05-28 08:04:52 51°21.7 2°54.474 5.5 254 14.4 102750 98
2009-05-28 08:04:57 51°21.711 2°54.489 4.6 251 14.4 102750 98
2009-05-28 08:05:03 51°21.725 2°54.507 5.7 252 14.4 102750 98
2009-05-28 08:05:08 51°21.736 2°54.525 5.4 253 14.4 102750 98
2009-05-28 08:05:12 51°21.744 2°54.538 5.7 252 14.4 102750 98
2009-05-28 08:05:17 51°21.755 2°54.555 5.2 254 14.4 102750 98
2009-05-28 08:05:23 51°21.768 2°54.576 6.7 256 14.4 102750 98
2009-05-28 08:05:28 51°21.777 2°54.595 5 256 14.4 102750 98
2009-05-28 08:05:32 51°21.786 2°54.608 4.5 246 14.4 102750 98
2009-05-28 08:05:37 51°21.795 2°54.627 4.6 255 14.4 102750 98
2009-05-28 08:05:42 51°21.805 2°54.645 5.5 253 14.4 102750 98
2009-05-28 08:05:48 51°21.817 2°54.666 5 253 14.4 102750 98
2009-05-28 08:05:52 51°21.825 2°54.681 6 255 14.4 102750 98
2009-05-28 08:05:57 51°21.835 2°54.699 4.8 256 14.4 102750 98
2009-05-28 08:06:03 51°21.847 2°54.72 6.5 258 14.4 102750 98
2009-05-28 08:06:07 51°21.854 2°54.736 5.4 256 14.4 102740 98
2009-05-28 08:06:12 51°21.865 2°54.753 5.6 252 14.4 102740 98
2009-05-28 08:06:17 51°21.874 2°54.772 4.7 252 14.5 102750 98
2009-05-28 08:06:23 51°21.887 2°54.794 5.3 251 14.5 102750 98
2009-05-28 08:06:27 51°21.895 2°54.809 4.8 253 14.5 102750 98
2009-05-28 08:06:32 51°21.904 2°54.828 6.2 256 14.5 102750 98
2009-05-28 08:06:37 51°21.914 2°54.846 5.8 255 14.4 102750 98
2009-05-28 08:06:43 51°21.925 2°54.87 5.4 256 14.4 102750 98
2009-05-28 08:06:47 51°21.933 2°54.884 4.8 256 14.5 102750 98
2009-05-28 08:06:52 51°21.942 2°54.904 5.7 256 14.5 102750 98
2009-05-28 08:06:57 51°21.951 2°54.922 5.5 256 14.5 102750 98
2009-05-28 08:07:03 51°21.962 2°54.946 5.6 255 14.5 102750 98
2009-05-28 08:07:08 51°21.971 2°54.965 5.1 257 14.5 102750 98
2009-05-28 08:07:12 51°21.978 2°54.981 4.6 257 14.5 102750 98
2009-05-28 08:07:17 51°21.987 2°55 5.5 258 14.5 102750 98
2009-05-28 08:07:23 51°21.998 2°55.023 4.5 251 14.5 102750 98
2009-05-28 08:07:28 51°22.007 2°55.043 3.4 247 14.5 102750 98
2009-05-28 08:07:32 51°22.014 2°55.059 3.7 261 14.5 102750 98
2009-05-28 08:07:37 51°22.021 2°55.079 3.9 261 14.5 102750 98
2009-05-28 08:07:43 51°22.032 2°55.102 3 260 14.5 102750 98
2009-05-28 08:07:48 51°22.038 2°55.124 3.3 261 14.5 102750 98
2009-05-28 08:07:52 51°22.045 2°55.139 3.5 269 14.5 102750 98
2009-05-28 08:07:57 51°22.051 2°55.161 3.2 268 14.5 102750 98
2009-05-28 08:08:02 51°22.059 2°55.181 3 269 14.5 102750 98
2009-05-28 08:08:08 51°22.067 2°55.207 3.2 263 14.5 102750 98
2009-05-28 08:08:12 51°22.073 2°55.224 3 262 14.5 102750 98
2009-05-28 08:08:17 51°22.079 2°55.246 2.6 263 14.5 102750 98
2009-05-28 08:08:23 51°22.088 2°55.272 3.8 37 14.5 102750 98
2009-05-28 08:08:27 51°22.092 2°55.289 3.5 18 14.5 102750 98
2009-05-28 08:08:32 51°22.099 2°55.31 2.3 265 14.5 102750 98
2009-05-28 08:08:37 51°22.106 2°55.331 2.1 262 14.5 102750 98
2009-05-28 08:08:43 51°22.114 2°55.357 3 259 14.5 102750 98
2009-05-28 08:08:47 51°22.119 2°55.374 3.1 261 14.5 102750 98
2009-05-28 08:08:52 51°22.125 2°55.396 2.4 262 14.5 102750 98
2009-05-28 08:08:57 51°22.132 2°55.418 2.8 263 14.5 102750 98
2009-05-28 08:09:03 51°22.139 2°55.444 2.4 265 14.5 102750 98
2009-05-28 08:09:08 51°22.145 2°55.465 2.1 264 14.5 102740 98
2009-05-28 08:09:12 51°22.151 2°55.482 2.8 261 14.5 102740 98
2009-05-28 08:09:17 51°22.157 2°55.504 2.5 264 14.5 102750 98
2009-05-28 08:09:23 51°22.165 2°55.53 2.7 262 14.5 102750 98
2009-05-28 08:09:28 51°22.171 2°55.551 2.8 263 14.5 102750 98
2009-05-28 08:09:32 51°22.176 2°55.568 3.4 266 14.5 102750 98
2009-05-28 08:09:37 51°22.183 2°55.59 3.2 268 14.5 102750 98
2009-05-28 08:09:43 51°22.191 2°55.616 3.2 263 14.5 102750 98
2009-05-28 08:09:48 51°22.197 2°55.637 3.1 263 14.5 102750 98
2009-05-28 08:09:52 51°22.202 2°55.655 2.9 264 14.5 102750 98
2009-05-28 08:09:57 51°22.209 2°55.676 3.8 259 14.5 102750 98
2009-05-28 08:10:03 51°22.216 2°55.702 2.7 264 14.5 102750 98
2009-05-28 08:10:08 51°22.224 2°55.723 2.8 264 14.5 102750 98
2009-05-28 08:10:12 51°22.229 2°55.739 2.6 266 14.5 102750 98
2009-05-28 08:10:17 51°22.234 2°55.762 3.5 261 14.5 102750 98
2009-05-28 08:10:22 51°22.242 2°55.781 3.4 269 14.5 102750 98
2009-05-28 08:10:28 51°22.249 2°55.808 3 263 14.5 102750 97
2009-05-28 08:10:33 51°22.256 2°55.828 3 262 14.5 102750 97
2009-05-28 08:10:37 51°22.261 2°55.845 3 257 14.5 102750 97
2009-05-28 08:10:43 51°22.269 2°55.871 2.8 261 14.5 102750 97
2009-05-28 08:10:47 51°22.274 2°55.887 3.6 259 14.5 102750 97
2009-05-28 08:10:52 51°22.281 2°55.909 3.2 264 14.5 102750 97
2009-05-28 08:10:57 51°22.288 2°55.93 3.4 266 14.5 102750 97
2009-05-28 08:11:03 51°22.295 2°55.956 3.9 261 14.5 102750 97
2009-05-28 08:11:08 51°22.303 2°55.976 4.7 260 14.5 102750 97
2009-05-28 08:11:12 51°22.307 2°55.994 4.6 258 14.5 102750 97
2009-05-28 08:11:18 51°22.317 2°56.019 4.5 257 14.5 102750 97
2009-05-28 08:11:23 51°22.323 2°56.04 3.4 260 14.5 102750 97
2009-05-28 08:11:28 51°22.33 2°56.061 3.9 259 14.5 102750 97
2009-05-28 08:11:32 51°22.335 2°56.078 5.6 255 14.5 102750 97
2009-05-28 08:11:38 51°22.344 2°56.103 4.3 260 14.5 102750 97
2009-05-28 08:11:43 51°22.351 2°56.124 5.7 261 14.5 102750 97
2009-05-28 08:11:47 51°22.357 2°56.14 3.8 264 14.5 102750 97
2009-05-28 08:11:52 51°22.363 2°56.163 5.2 260 14.5 102750 97
2009-05-28 08:11:57 51°22.371 2°56.183 4.3 256 14.5 102750 97
2009-05-28 08:12:03 51°22.378 2°56.208 3.5 260 14.5 102750 97
2009-05-28 08:12:07 51°22.383 2°56.225 2.7 263 14.5 102750 97
2009-05-28 08:12:12 51°22.39 2°56.245 3.9 255 14.5 102750 97
2009-05-28 08:12:17 51°22.396 2°56.265 4.9 255 14.5 102760 97
2009-05-28 08:12:22 51°22.403 2°56.286 4.7 259 14.5 102760 97
2009-05-28 08:12:28 51°22.411 2°56.311 4.9 258 14.5 102750 97
2009-05-28 08:12:32 51°22.417 2°56.328 4.9 260 14.5 102750 97
2009-05-28 08:12:37 51°22.424 2°56.348 2.9 263 14.5 102750 97
2009-05-28 08:12:43 51°22.432 2°56.373 4.6 259 14.5 102750 97
2009-05-28 08:12:47 51°22.437 2°56.39 4 261 14.5 102750 97
2009-05-28 08:12:52 51°22.445 2°56.411 4.1 260 14.5 102750 97
2009-05-28 08:12:57 51°22.451 2°56.431 3.2 257 14.5 102750 97
2009-05-28 08:13:02 51°22.458 2°56.452 6.4 258 14.5 102750 97
2009-05-28 08:13:07 51°22.466 2°56.472 4.4 262 14.5 102750 97
2009-05-28 08:13:12 51°22.471 2°56.493 4.8 261 14.5 102750 97
2009-05-28 08:13:17 51°22.48 2°56.513 4.3 260 14.5 102750 97
2009-05-28 08:13:23 51°22.488 2°56.539 3.2 261 14.5 102750 97
2009-05-28 08:13:27 51°22.494 2°56.555 4 263 14.5 102750 97
2009-05-28 08:13:32 51°22.5 2°56.576 5.5 256 14.5 102750 97
2009-05-28 08:13:37 51°22.508 2°56.596 5.3 257 14.5 102750 97
2009-05-28 08:13:43 51°22.517 2°56.621 6.7 255 14.5 102750 97
2009-05-28 08:13:47 51°22.524 2°56.636 5.7 256 14.5 102750 97
2009-05-28 08:13:52 51°22.532 2°56.656 7 256 14.5 102750 97
2009-05-28 08:13:57 51°22.542 2°56.674 7.8 258 14.6 102750 97
2009-05-28 08:14:03 51°22.553 2°56.696 6.9 259 14.6 102750 97
2009-05-28 08:14:08 51°22.563 2°56.713 5 252 14.6 102750 97
2009-05-28 08:14:12 51°22.571 2°56.727 8.7 254 14.6 102750 97
2009-05-28 08:14:17 51°22.583 2°56.742 7.3 255 14.6 102760 97
2009-05-28 08:14:23 51°22.596 2°56.761 7.8 250 14.6 102760 97
2009-05-28 08:14:28 51°22.608 2°56.773 8.6 252 14.6 102750 97
2009-05-28 08:14:32 51°22.618 2°56.785 8.1 250 14.6 102750 97
2009-05-28 08:14:37 51°22.631 2°56.795 8 25 14.6 102750 97
2009-05-28 08:14:43 51°22.647 2°56.808 9.3 245 14.6 102750 97
2009-05-28 08:14:48 51°22.661 2°56.816 6.9 242 14.6 102750 97
2009-05-28 08:14:52 51°22.673 2°56.822 10.3 240 14.6 102750 97
2009-05-28 08:14:57 51°22.687 2°56.828 9.5 28 14.6 102760 97
2009-05-28 08:15:03 51°22.706 2°56.833 8.5 237 14.6 102760 97
2009-05-28 08:15:07 51°22.717 2°56.836 11 20 14.6 102750 97
2009-05-28 08:15:12 51°22.733 2°56.837 11 237 14.6 102750 97
2009-05-28 08:15:17 51°22.748 2°56.84 10.3 25 14.6 102750 97
2009-05-28 08:15:22 51°22.764 2°56.839 10.1 237 14.6 102750 97
2009-05-28 08:15:28 51°22.782 2°56.84 10.1 22 14.6 102760 97
2009-05-28 08:15:32 51°22.795 2°56.836 11.7 236 14.6 102760 97
2009-05-28 08:15:38 51°22.814 2°56.836 12.5 22 14.6 102750 97
2009-05-28 08:15:43 51°22.829 2°56.831 11.1 35 14.6 102750 97
2009-05-28 08:15:48 51°22.845 2°56.829 12.3 23 14.6 102760 97
2009-05-28 08:15:52 51°22.858 2°56.827 12.4 32 14.6 102760 97
2009-05-28 08:15:58 51°22.877 2°56.822 10.6 21 14.6 102760 97
2009-05-28 08:16:03 51°22.893 2°56.818 11.6 31 14.6 102760 97
2009-05-28 08:16:07 51°22.905 2°56.814 9.3 25 14.6 102750 97
2009-05-28 08:16:12 51°22.922 2°56.811 12.7 33 14.6 102750 97
2009-05-28 08:16:17 51°22.938 2°56.807 12.8 25 14.6 102760 97
2009-05-28 08:16:23 51°22.957 2°56.802 10.9 235 14.6 102760 97
2009-05-28 08:16:27 51°22.969 2°56.798 9.9 27 14.6 102760 97
2009-05-28 08:16:32 51°22.985 2°56.796 12.7 236 14.6 102760 97
2009-05-28 08:16:37 51°23.001 2°56.79 12.5 27 14.6 102750 97
2009-05-28 08:16:43 51°23.02 2°56.785 9.9 233 14.6 102750 97
2009-05-28 08:16:48 51°23.036 2°56.781 11.5 23 14.6 102750 97
2009-05-28 08:16:52 51°23.048 2°56.778 12.9 236 14.6 102750 97
2009-05-28 08:16:57 51°23.064 2°56.774 12.7 22 14.6 102750 97
2009-05-28 08:17:03 51°23.083 2°56.77 11.6 33 14.6 102750 97
2009-05-28 08:17:08 51°23.099 2°56.766 11.1 21 14.6 102770 97
2009-05-28 08:17:12 51°23.112 2°56.763 11.7 32 14.6 102770 97
2009-05-28 08:17:17 51°23.127 2°56.761 10.2 21 14.6 102750 97
2009-05-28 08:17:23 51°23.147 2°56.758 11.7 235 14.6 102750 97
2009-05-28 08:17:28 51°23.163 2°56.754 12.3 25 14.6 102760 97
2009-05-28 08:17:32 51°23.175 2°56.753 11.3 239 14.6 102760 97
2009-05-28 08:17:37 51°23.191 2°56.749 11.8 20 14.6 102760 97
2009-05-28 08:17:43 51°23.21 2°56.747 12.6 237 14.6 102760 97
2009-05-28 08:17:47 51°23.223 2°56.744 11.6 23 14.6 102760 97
2009-05-28 08:17:53 51°23.242 2°56.742 10.1 236 14.6 102760 97
2009-05-28 08:17:57 51°23.255 2°56.74 9.5 27 14.6 102760 97
2009-05-28 08:18:03 51°23.274 2°56.738 11.9 235 14.6 102760 97
2009-05-28 08:18:07 51°23.287 2°56.736 11.9 27 14.6 102760 97
2009-05-28 08:18:12 51°23.303 2°56.735 9.4 236 14.6 102760 97
2009-05-28 08:18:17 51°23.319 2°56.733 11.4 20 14.6 102760 97
2009-05-28 08:18:23 51°23.338 2°56.731 11.4 31 14.6 102760 97
2009-05-28 08:18:28 51°23.354 2°56.731 10.2 21 14.6 102760 97
2009-05-28 08:18:32 51°23.367 2°56.73 10.8 33 14.6 102760 97
2009-05-28 08:18:37 51°23.383 2°56.73 11.2 25 14.6 102760 97
2009-05-28 08:18:43 51°23.402 2°56.73 10.5 239 14.6 102760 97
2009-05-28 08:18:47 51°23.415 2°56.73 12.3 21 14.6 102760 97
2009-05-28 08:18:52 51°23.431 2°56.731 9.9 238 14.6 102760 97
2009-05-28 08:18:57 51°23.447 2°56.732 11 27 14.6 102760 97
2009-05-28 08:19:03 51°23.466 2°56.732 10.3 237 14.6 102760 97
2009-05-28 08:19:08 51°23.482 2°56.733 10.3 25 14.6 102760 97
2009-05-28 08:19:12 51°23.495 2°56.734 12.1 239 14.6 102760 97
2009-05-28 08:19:17 51°23.511 2°56.735 9.9 23 14.6 102750 97
2009-05-28 08:19:23 51°23.53 2°56.737 9.7 237 14.6 102750 97
2009-05-28 08:19:27 51°23.543 2°56.739 10.1 20 14.6 102750 97
2009-05-28 08:19:32 51°23.559 2°56.739 10.6 32 14.6 102750 97
2009-05-28 08:19:37 51°23.574 2°56.742 10.6 24 14.6 102770 97
2009-05-28 08:19:43 51°23.594 2°56.742 9 237 14.6 102770 97
2009-05-28 08:19:47 51°23.607 2°56.744 8.8 24 14.6 102760 97
2009-05-28 08:19:52 51°23.622 2°56.745 11.8 238 14.6 102760 97
2009-05-28 08:19:57 51°23.638 2°56.746 10.8 23 14.6 102770 97
2009-05-28 08:20:03 51°23.658 2°56.748 11.2 34 14.6 102770 97
2009-05-28 08:20:07 51°23.67 2°56.749 10.8 24 14.6 102760 97
2009-05-28 08:20:13 51°23.689 2°56.751 11.2 237 14.6 102760 97
2009-05-28 08:20:17 51°23.702 2°56.753 10.7 21 14.6 102770 97
2009-05-28 08:20:23 51°23.721 2°56.754 9.1 238 14.6 102770 97
2009-05-28 08:20:27 51°23.734 2°56.756 9.7 29 14.5 102770 97
2009-05-28 08:20:32 51°23.75 2°56.755 10.1 235 14.5 102770 97
2009-05-28 08:20:37 51°23.766 2°56.758 9.8 24 14.5 102770 97
2009-05-28 08:20:43 51°23.785 2°56.76 11 239 14.5 102770 97
2009-05-28 08:20:48 51°23.801 2°56.761 10.3 25 14.6 102770 97
2009-05-28 08:20:52 51°23.814 2°56.763 10 240 14.6 102770 97
2009-05-28 08:20:57 51°23.829 2°56.763 9.5 26 14.6 102760 97
2009-05-28 08:21:03 51°23.849 2°56.765 9.1 238 14.6 102760 97
2009-05-28 08:21:08 51°23.865 2°56.765 8.9 22 14.6 102760 97
2009-05-28 08:21:12 51°23.877 2°56.766 11.4 240 14.6 102760 97
2009-05-28 08:21:17 51°23.893 2°56.767 8.9 25 14.6 102760 97
2009-05-28 08:21:22 51°23.909 2°56.769 9 34 14.6 102760 97
2009-05-28 08:21:28 51°23.928 2°56.771 9.8 24 14.6 102770 97
2009-05-28 08:21:32 51°23.94 2°56.771 8.7 236 14.6 102770 97
2009-05-28 08:21:37 51°23.956 2°56.774 9.9 27 14.6 102760 97
2009-05-28 08:21:43 51°23.975 2°56.775 11.2 238 14.6 102760 97
2009-05-28 08:21:48 51°23.991 2°56.778 11.9 23 14.6 102770 97
2009-05-28 08:21:52 51°24.004 2°56.778 9.2 240 14.6 102770 97
2009-05-28 08:21:57 51°24.019 2°56.779 10 22 14.5 102760 97
2009-05-28 08:22:03 51°24.038 2°56.78 10.2 239 14.5 102760 97
2009-05-28 08:22:07 51°24.051 2°56.781 9.9 24 14.5 102760 97
2009-05-28 08:22:12 51°24.066 2°56.784 11.5 239 14.5 102760 97
2009-05-28 08:22:17 51°24.082 2°56.785 11.6 22 14.5 102760 97
2009-05-28 08:22:23 51°24.101 2°56.788 11 240 14.5 102760 97
2009-05-28 08:22:27 51°24.114 2°56.789 10.3 19 14.5 102770 97
2009-05-28 08:22:32 51°24.129 2°56.79 8.6 239 14.5 102770 97
2009-05-28 08:22:37 51°24.145 2°56.792 8.4 24 14.6 102760 97
2009-05-28 08:22:43 51°24.164 2°56.794 10.4 239 14.6 102760 97
2009-05-28 08:22:47 51°24.177 2°56.795 9.9 26 14.5 102760 97
2009-05-28 08:22:52 51°24.193 2°56.797 10.8 32 14.5 102760 97
2009-05-28 08:22:57 51°24.209 2°56.799 10.8 19 14.5 102760 97
2009-05-28 08:23:03 51°24.228 2°56.801 10.4 239 14.5 102760 97
2009-05-28 08:23:08 51°24.244 2°56.802 10.4 23 14.5 102760 97
2009-05-28 08:23:12 51°24.256 2°56.803 9.2 236 14.5 102760 97
2009-05-28 08:23:17 51°24.272 2°56.805 11.2 23 14.5 102770 97
2009-05-28 08:23:23 51°24.292 2°56.806 11 239 14.5 102770 97
2009-05-28 08:23:27 51°24.304 2°56.807 12.1 21 14.6 102760 97
2009-05-28 08:23:32 51°24.32 2°56.809 9.3 241 14.6 102760 97
2009-05-28 08:23:37 51°24.336 2°56.81 8.4 19 14.5 102770 97
2009-05-28 08:23:43 51°24.355 2°56.811 10.2 236 14.5 102770 97
2009-05-28 08:23:48 51°24.37 2°56.813 9.6 28 14.5 102750 97
2009-05-28 08:23:52 51°24.383 2°56.814 10 241 14.5 102750 97
2009-05-28 08:23:57 51°24.399 2°56.816 11.5 25 14.5 102760 97
2009-05-28 08:24:03 51°24.418 2°56.818 8.7 238 14.5 102760 97
2009-05-28 08:24:08 51°24.434 2°56.82 9.2 24 14.5 102760 97
2009-05-28 08:24:12 51°24.447 2°56.82 11.9 238 14.5 102760 97
2009-05-28 08:24:17 51°24.462 2°56.822 9.4 26 14.5 102760 97
2009-05-28 08:24:23 51°24.482 2°56.824 9 240 14.5 102760 97
2009-05-28 08:24:27 51°24.494 2°56.826 10.4 23 14.5 102760 97
2009-05-28 08:24:33 51°24.513 2°56.828 11.4 239 14.5 102760 97
2009-05-28 08:24:37 51°24.526 2°56.828 11 24 14.5 102760 97
2009-05-28 08:24:43 51°24.545 2°56.832 9.6 244 14.5 102760 97
2009-05-28 08:24:48 51°24.561 2°56.833 11.1 25 14.5 102770 97
2009-05-28 08:24:52 51°24.574 2°56.835 9.2 239 14.5 102770 97
2009-05-28 08:24:58 51°24.593 2°56.836 11.3 25 14.5 102760 97
2009-05-28 08:25:03 51°24.609 2°56.838 11.6 241 14.5 102760 97
2009-05-28 08:25:08 51°24.625 2°56.84 11.7 26 14.5 102760 97
2009-05-28 08:25:12 51°24.638 2°56.84 10 238 14.5 102760 97
2009-05-28 08:25:18 51°24.657 2°56.844 8.1 27 14.5 102770 97
2009-05-28 08:25:23 51°24.673 2°56.844 9.4 240 14.5 102770 97
2009-05-28 08:25:28 51°24.689 2°56.846 10.3 23 14.5 102760 97
2009-05-28 08:25:32 51°24.702 2°56.848 11.1 238 14.5 102760 97
2009-05-28 08:25:37 51°24.718 2°56.849 10.7 21 14.5 102760 97
2009-05-28 08:25:43 51°24.737 2°56.852 8.8 238 14.5 102760 97
2009-05-28 08:25:48 51°24.753 2°56.853 9.3 28 14.5 102760 97
2009-05-28 08:25:52 51°24.766 2°56.853 8 240 14.5 102760 97
2009-05-28 08:25:57 51°24.782 2°56.856 9.8 22 14.5 102760 97
2009-05-28 08:26:02 51°24.798 2°56.857 8.6 237 14.5 102760 97
2009-05-28 08:26:08 51°24.818 2°56.859 10.5 22 14.5 102760 97
2009-05-28 08:26:12 51°24.83 2°56.861 9.2 237 14.5 102760 97
2009-05-28 08:26:18 51°24.85 2°56.863 9.7 242 14.5 102760 97
2009-05-28 08:26:23 51°24.866 2°56.866 10.1 240 14.5 102760 97
2009-05-28 08:26:27 51°24.879 2°56.867 8.5 27 14.5 102760 97
2009-05-28 08:26:32 51°24.895 2°56.868 10.3 241 14.5 102760 97
2009-05-28 08:26:37 51°24.91 2°56.871 10.9 27 14.5 102770 97
2009-05-28 08:26:43 51°24.93 2°56.873 9.9 239 14.5 102770 97
2009-05-28 08:26:47 51°24.942 2°56.875 10.8 21 14.5 102760 97
2009-05-28 08:26:52 51°24.959 2°56.876 9 241 14.5 102760 97
2009-05-28 08:26:57 51°24.974 2°56.879 9.5 20 14.5 102770 97
2009-05-28 08:27:03 51°24.994 2°56.881 8.5 240 14.5 102770 97
2009-05-28 08:27:07 51°25.006 2°56.884 8.5 27 14.5 102760 97
2009-05-28 08:27:12 51°25.022 2°56.885 10.3 239 14.5 102760 97
2009-05-28 08:27:18 51°25.041 2°56.887 11.9 22 14.5 102760 97
2009-05-28 08:27:23 51°25.057 2°56.889 9.5 237 14.5 102760 97
2009-05-28 08:27:28 51°25.073 2°56.891 11 24 14.5 102770 97
2009-05-28 08:27:32 51°25.086 2°56.891 11.3 239 14.5 102770 97
2009-05-28 08:27:38 51°25.105 2°56.894 11.7 27 14.5 102770 97
2009-05-28 08:27:43 51°25.121 2°56.895 10.2 238 14.5 102770 97
2009-05-28 08:27:48 51°25.137 2°56.897 11.1 24 14.5 102770 97
2009-05-28 08:27:52 51°25.15 2°56.898 8.6 239 14.5 102770 97
2009-05-28 08:27:57 51°25.166 2°56.901 10.5 24 14.5 102770 97
2009-05-28 08:28:03 51°25.185 2°56.901 9.5 238 14.5 102770 97
2009-05-28 08:28:08 51°25.201 2°56.904 11.2 26 14.5 102770 97
2009-05-28 08:28:12 51°25.214 2°56.904 8 241 14.5 102770 97
2009-05-28 08:28:17 51°25.23 2°56.908 10.8 21 14.5 102770 97
2009-05-28 08:28:23 51°25.249 2°56.909 9.3 237 14.5 102770 97
2009-05-28 08:28:28 51°25.266 2°56.911 8.5 26 14.5 102770 97
2009-05-28 08:28:32 51°25.278 2°56.912 7.9 240 14.5 102770 97
2009-05-28 08:28:37 51°25.294 2°56.915 8.7 20 14.5 102760 97
2009-05-28 08:28:42 51°25.31 2°56.915 9.5 32 14.5 102760 97
2009-05-28 08:28:48 51°25.329 2°56.919 8.2 25 14.5 102760 97
2009-05-28 08:28:53 51°25.345 2°56.921 9.8 242 14.5 102760 97
2009-05-28 08:28:57 51°25.358 2°56.921 9.7 20 14.5 102770 97
2009-05-28 08:29:03 51°25.377 2°56.924 9.3 241 14.5 102770 97
2009-05-28 08:29:07 51°25.39 2°56.925 8.8 27 14.5 102770 97
2009-05-28 08:29:12 51°25.406 2°56.927 10.3 239 14.5 102770 97
2009-05-28 08:29:18 51°25.425 2°56.929 8.8 24 14.5 102760 97
2009-05-28 08:29:23 51°25.441 2°56.93 10.2 238 14.5 102760 97
2009-05-28 08:29:27 51°25.454 2°56.932 9.7 27 14.5 102760 97
2009-05-28 08:29:32 51°25.47 2°56.933 9.1 239 14.5 102760 97
2009-05-28 08:29:38 51°25.489 2°56.935 10.5 24 14.5 102760 97
2009-05-28 08:29:43 51°25.505 2°56.937 11.3 241 14.5 102760 97
2009-05-28 08:29:48 51°25.521 2°56.938 10.5 23 14.5 102760 97
2009-05-28 08:29:52 51°25.533 2°56.94 8.4 241 14.5 102760 97
2009-05-28 08:29:58 51°25.552 2°56.941 9.1 27 14.5 102770 97
2009-05-28 08:30:03 51°25.568 2°56.945 11.4 237 14.5 102770 97
2009-05-28 08:30:07 51°25.581 2°56.945 11.5 22 14.5 102760 97
2009-05-28 08:30:12 51°25.596 2°56.947 8.7 239 14.5 102760 97
2009-05-28 08:30:17 51°25.612 2°56.949 10.2 25 14.5 102770 97
2009-05-28 08:30:22 51°25.628 2°56.95 10.1 240 14.5 102770 97
2009-05-28 08:30:28 51°25.647 2°56.953 10.2 21 14.4 102770 97
2009-05-28 08:30:32 51°25.66 2°56.954 10.2 241 14.4 102770 97
2009-05-28 08:30:37 51°25.676 2°56.957 10.5 24 14.5 102780 97
2009-05-28 08:30:43 51°25.695 2°56.959 9 239 14.5 102780 97
2009-05-28 08:30:48 51°25.711 2°56.961 11.5 20 14.5 102780 97
2009-05-28 08:30:52 51°25.724 2°56.963 10.9 239 14.5 102780 97
2009-05-28 08:30:57 51°25.74 2°56.964 9.7 22 14.4 102780 97
2009-05-28 08:31:03 51°25.759 2°56.967 10.6 240 14.4 102780 97
2009-05-28 08:31:07 51°25.771 2°56.969 9.9 20 14.5 102770 97
2009-05-28 08:31:13 51°25.79 2°56.975 8.7 242 14.5 102770 97
2009-05-28 08:31:17 51°25.802 2°56.978 8.2 23 14.5 102770 97
2009-05-28 08:31:23 51°25.821 2°56.984 10.1 243 14.5 102770 97
2009-05-28 08:31:27 51°25.833 2°56.988 10.4 25 14.4 102770 97
2009-05-28 08:31:32 51°25.848 2°56.993 10.1 243 14.4 102770 97
2009-05-28 08:31:37 51°25.864 2°56.999 9 242 14.4 102780 97
2009-05-28 08:31:43 51°25.882 2°57.006 8.6 243 14.4 102780 97
2009-05-28 08:31:48 51°25.898 2°57.011 10 26 14.4 102780 97
2009-05-28 08:31:52 51°25.909 2°57.016 8.5 244 14.4 102780 97
2009-05-28 08:31:58 51°25.928 2°57.024 8.2 244 14.5 102770 97
2009-05-28 08:32:03 51°25.943 2°57.028 9.1 241 14.5 102770 97
2009-05-28 08:32:08 51°25.958 2°57.037 9.4 22 14.5 102770 97
2009-05-28 08:32:12 51°25.971 2°57.039 7.7 240 14.5 102770 97
2009-05-28 08:32:17 51°25.985 2°57.049 8.8 23 14.4 102780 97
2009-05-28 08:32:23 51°26.004 2°57.054 9.3 244 14.4 102780 97
2009-05-28 08:32:28 51°26.019 2°57.062 8.3 27 14.5 102780 97
2009-05-28 08:32:32 51°26.031 2°57.066 7 241 14.5 102780 97
2009-05-28 08:32:37 51°26.046 2°57.073 8.7 25 14.5 102780 97
2009-05-28 08:32:43 51°26.064 2°57.081 8.3 31 14.5 102780 97
2009-05-28 08:32:48 51°26.08 2°57.087 9.6 24 14.4 102770 97
2009-05-28 08:32:52 51°26.092 2°57.091 10 243 14.4 102770 97
2009-05-28 08:32:57 51°26.106 2°57.099 7.9 244 14.5 102780 97
2009-05-28 08:33:03 51°26.125 2°57.107 9.1 243 14.5 102780 97
2009-05-28 08:33:08 51°26.14 2°57.114 8.5 26 14.5 102770 97
2009-05-28 08:33:12 51°26.152 2°57.118 7.4 241 14.5 102770 97
2009-05-28 08:33:18 51°26.17 2°57.127 9.7 244 14.5 102780 97
2009-05-28 08:33:22 51°26.183 2°57.131 9.6 243 14.5 102780 97
2009-05-28 08:33:28 51°26.201 2°57.14 8.3 25 14.5 102780 97
2009-05-28 08:33:32 51°26.214 2°57.143 7.4 239 14.5 102780 97
2009-05-28 08:33:38 51°26.232 2°57.152 8.9 28 14.4 102770 97
2009-05-28 08:33:43 51°26.247 2°57.157 9.7 242 14.4 102770 97
2009-05-28 08:33:48 51°26.263 2°57.164 10.3 21 14.4 102780 97